Location: Acheville
(50.3840°N, 2.8827°E)
Time: 14:55:16
(UTC+00:00)

Cosmos 1825 - Pass Details

Date: 24 October 2021
Orbit: 501 x 504 km, 82.5° (Epoch: 27 November)

Event Time Altitude Azimuth Distance (km) Brightness Sun altitude
Rises 19:29:59 0° 343° (NNW) 2,610 6.2 -27.8°
Reaches altitude 10° 19:32:13 10° 334° (NNW) 1,721 5.3 -28.1°
Enters shadow 19:34:33 29° 305° (NW) 955 4.0 -28.5°
